[[{"header":{"parameterUnit":"m.s-1","parameterCategory":1,"la1":30.2991,"la2":30.254,"lo1":-89.0895,"lo2":-89.0444,"dy":0.0017,"dx":0.0017,"nx":28,"ny":28,"refTime":"2025-03-18T09:00:00:Z","depth":0,"parameterNumber":2,"parameterNumberName":"U-component_of_WINDS"},"data":[0,0,0,0,0,0,0,0,0,0,0,0,0,0,0,0,0,0,0,0,0,0,0,0,0,0,0,0,0,0,0,0,0,0,0,0,0,0,0,0,0,0,0,0,0,0,0,0,0,0,0,0,0,0,0,0,0,0,0.6007,0.6006,0,0.5927,0.5927,0.5926,0.5857,0.5856,0.5856,0.5855,0.5772,0.5771,0.5769,0,0,0,0,0,0,0,0,0,0,0,0,0,0.6098,0.6096,0.6007,0.6006,0.6005,0.5928,0.5926,0.5925,0.5857,0.5856,0.5855,0.5855,0.5773,0.5771,0.5769,0,0,0,0,0,0,0,0,0,0,0,0,0,0.6042,0.6096,0.6007,0.5962,0.5957,0.5928,0.5926,0.5925,0.5858,0.5856,0.5855,0.5854,0.5773,0.5771,0.5769,0.5778,0,0,0.5762,0.5761,0,0,0,0,0,0,0,0,0.6046,0.6039,0.5969,0.5965,0.5959,0.5901,0.5928,0.5876,0.5858,0.5895,0.5855,0.5854,0.5816,0.581,0.5798,0.5774,0.5771,0.5762,0.5761,0.576,0.5759,0,0,0,0,0,0,0,0.6049,0.6042,0.5975,0.5969,0.5962,0.5945,0.5935,0.5918,0.5863,0.5892,0.5887,0.5878,0.5813,0.58,0.5795,0.577,0.5762,0.576,0.5759,0.5758,0.5747,0.5748,0,0,0,0,0,0,0.6061,0.6046,0.5978,0.5973,0.6001,0.5944,0.5934,0.5921,0.5863,0.5853,0.5879,0.5875,0.5804,0.5798,0.5792,0.5797,0.576,0.5758,0.5756,0.5746,0.5747,0.5748,0,0,0,0,0,0,0.6063,0.6055,0.5981,0.6008,0.5997,0.5944,0.593,0.592,0.5907,0.5854,0.5843,0.5876,0.5803,0.5795,0.5782,0.5793,0.5757,0.5755,0.5745,0.5746,0.5748,0.5809,0,0,0,0,0,0,0.6066,0.6056,0.606,0.6009,0.5996,0.5973,0.5931,0.5919,0.5903,0.5897,0.5848,0.5839,0.5802,0.5785,0.5779,0.579,0.5753,0.5743,0.5745,0.5747,0.5806,0.5812,0.5818,0,0,0,0,0,0.6069,0.6081,0.6061,0.6053,0.6,0.5974,0.5967,0.5924,0.5905,0.5907,0.5873,0.584,0.5793,0.5785,0.5777,0.5787,0.5742,0.5745,0.5747,0.5803,0.5811,0.5818,0,0,0,0,0,0,0.6135,0.6073,0.605,0.6045,0.6015,0.5962,0.5964,0.5935,0.5909,0.5905,0.5853,0.5842,0.5834,0.5809,0.5801,0.5792,0.5763,0.5765,0.5808,0.5816,0.5822,0.5827,0.5751,0,0,0,0,0,0.6149,0.6134,0.608,0.6081,0.6067,0.6019,0.6006,0.5976,0.5942,0.5929,0.5894,0.5862,0.584,0.5827,0.5804,0.5802,0.5789,0.5805,0.5811,0.5817,0.5818,0.5813,0.5819,0.5756,0.5756,0.5756,0,0,0.6177,0.6142,0.6135,0.6093,0.6067,0.6051,0.6008,0.5994,0.5982,0.5927,0.5912,0.5885,0.5846,0.5838,0.5832,0.5817,0.5832,0.582,0.5825,0.5823,0.5816,0.5822,0.5828,0.5758,0.5758,0.5757,0,0,0.6221,0.6193,0.619,0.6164,0.6124,0.6091,0.6091,0.6042,0.6021,0.6005,0.5963,0.5947,0.5911,0.5884,0.5866,0.5899,0.5867,0.5893,0.5925,0.5921,0.5926,0.593,0.594,0.5945,0.5894,0.5894,0.5894,0,0.6261,0.6237,0.6192,0.618,0.6162,0.6112,0.6107,0.6084,0.6038,0.6027,0.601,0.5962,0.5933,0.5917,0.5924,0.5912,0.5908,0.5898,0.5929,0.5933,0.5936,0.5945,0.5949,0.5898,0.5897,0.5897,0.5897,0,0.6287,0.6271,0.6273,0.623,0.6213,0.6205,0.6158,0.6145,0.6116,0.6085,0.6068,0.6031,0.5999,0.5993,0.5965,0.5972,0.5964,0.5939,0.5909,0.5946,0.5953,0.5957,0.5902,0.5901,0.59,0.5899,0,0,0.637,0.6302,0.6303,0.6282,0.6234,0.622,0.6209,0.6177,0.6167,0.6137,0.6125,0.6095,0.6071,0.6051,0.6019,0.6016,0.6042,0.5991,0.5989,0.6001,0.6046,0.6064,0.6069,0.6021,0.6022,0.6022,0.6048,0,0.6404,0.6382,0.6341,0.6332,0.6315,0.6267,0.6257,0.6226,0.6196,0.6177,0.6144,0.6123,0.6094,0.6081,0.6075,0.604,0.605,0.6038,0.6008,0.6008,0.6019,0.6073,0.6092,0.6119,0.6051,0.6052,0.6052,0,0.6442,0.6414,0.6404,0.6355,0.6346,0.6338,0.6305,0.6288,0.6251,0.6229,0.6206,0.6171,0.6156,0.613,0.6107,0.6099,0.6085,0.6065,0.6065,0.606,0.6032,0.6067,0.6126,0.613,0.6056,0.6056,0.6056,0,0.6501,0.6461,0.6449,0.6433,0.6377,0.6372,0.6348,0.631,0.6293,0.6264,0.6252,0.6222,0.6205,0.6182,0.6139,0.6124,0.612,0.6091,0.6101,0.6102,0.6101,0.6101,0.6157,0.6095,0.6094,0.6094,0.6094,0,0.6543,0.6538,0.6475,0.6467,0.6459,0.6412,0.6405,0.6377,0.6343,0.6328,0.6285,0.6271,0.6217,0.6197,0.6163,0.6148,0.6142,0.6123,0.6114,0.6126,0.6128,0.6115,0.6111,0.6095,0.6095,0.6095,0.6095,0,0.6607,0.6565,0.6548,0.6496,0.6483,0.6479,0.6434,0.6424,0.6392,0.6373,0.6366,0.6315,0.6289,0.6245,0.6207,0.6184,0.6175,0.616,0.6187,0.6182,0.6193,0.6192,0.6241,0.6245,0.6182,0.6182,0.6183,0,0.6636,0.6631,0.6578,0.6565,0.6543,0.6523,0.6505,0.6458,0.6441,0.6398,0.6393,0.6364,0.6338,0.6298,0.6257,0.6227,0.6211,0.623,0.6206,0.6218,0.6209,0.6209,0.6207,0.6235,0.6236,0.6237,0.6237,0,0.6691,0.667,0.6647,0.6616,0.6596,0.657,0.6541,0.6533,0.6479,0.6462,0.6435,0.6415,0.6375,0.6346,0.631,0.6284,0.6251,0.6246,0.6246,0.6258,0.6273,0.6263,0.6201,0.6244,0.6244,0.6243,0.6243,0.6243,0.6737,0.6729,0.6691,0.6666,0.6639,0.6613,0.6601,0.6567,0.6544,0.6508,0.6481,0.6456,0.6417,0.6365,0.6341,0.632,0.6305,0.6306,0.6306,0.6307,0.6311,0.6277,0.6313,0.6313,0.6313,0.6313,0.6312,0,0.6788,0.6761,0.6739,0.6699,0.6679,0.6651,0.6617,0.6602,0.6581,0.6548,0.6523,0.6491,0.6463,0.6419,0.6387,0.6378,0.6362,0.6371,0.637,0.6365,0.6327,0.6329,0.6384,0.6384,0.6384,0.6384,0.6384,0.6384,0.6812,0.6798,0.6772,0.6743,0.6715,0.6691,0.6673,0.6648,0.6622,0.6589,0.6565,0.6537,0.6499,0.6464,0.6436,0.6423,0.6413,0.6426,0.6409,0.6374,0.6368,0.6361,0.6363,0.6425,0.6425,0.6448,0.6449,0.6449]},{"header":{"parameterUnit":"m.s-1","parameterCategory":1,"la1":30.2991,"la2":30.254,"lo1":-89.0895,"lo2":-89.0444,"dy":0.0017,"dx":0.0017,"nx":28,"ny":28,"refTime":"2025-03-18T09:00:00:Z","depth":0,"parameterNumber":3,"parameterNumberName":"V-component_of_WINDS"},"data":[0,0,0,0,0,0,0,0,0,0,0,0,0,0,0,0,0,0,0,0,0,0,0,0,0,0,0,0,0,0,0,0,0,0,0,0,0,0,0,0,0,0,0,0,0,0,0,0,0,0,0,0,0,0,0,0,0,0,7.8986,7.8987,0,7.9081,7.9082,7.9083,7.9024,7.9021,7.9019,7.9016,7.9105,7.911,7.9115,0,0,0,0,0,0,0,0,0,0,0,0,0,7.8743,7.8748,7.8985,7.8987,7.8988,7.9081,7.9082,7.9083,7.9025,7.9021,7.9018,7.9015,7.9103,7.9109,7.9115,0,0,0,0,0,0,0,0,0,0,0,0,0,7.8844,7.8749,7.8985,7.897,7.897,7.9081,7.9082,7.9084,7.9025,7.9021,7.9017,7.9013,7.9101,7.9109,7.9116,7.9245,0,0,7.9139,7.9142,0,0,0,0,0,0,0,0,7.8838,7.8853,7.8971,7.8971,7.8971,7.9037,7.9029,7.9137,7.9026,7.9004,7.9016,7.9011,7.9085,7.9094,7.912,7.9249,7.9253,7.9139,7.9144,7.9147,7.9149,0,0,0,0,0,0,0,7.8831,7.8848,7.9023,7.8973,7.8973,7.8955,7.8965,7.9049,7.9066,7.9006,7.9002,7.9014,7.9084,7.9113,7.9122,7.9254,7.9139,7.9146,7.915,7.9153,7.949,7.9495,0,0,0,0,0,0,7.8827,7.8843,7.902,7.9026,7.8893,7.8963,7.8974,7.902,7.9065,7.9068,7.9018,7.9011,7.9103,7.9113,7.9125,7.9277,7.9147,7.9154,7.9158,7.9486,7.9491,7.9496,0,0,0,0,0,0,7.8822,7.8843,7.9016,7.8934,7.8954,7.8972,7.9023,7.9024,7.9053,7.9075,7.9076,7.9045,7.91,7.9114,7.9215,7.9279,7.9157,7.9164,7.9481,7.9488,7.9494,7.9583,0,0,0,0,0,0,7.8815,7.8842,7.8893,7.8935,7.8959,7.9108,7.9027,7.9029,7.9067,7.9059,7.9101,7.9103,7.9098,7.9205,7.9223,7.9287,7.917,7.9475,7.9484,7.9492,7.9575,7.9592,7.9608,0,0,0,0,0,7.8807,7.8913,7.8896,7.8918,7.9024,7.9112,7.9125,7.9119,7.9072,7.9122,7.9136,7.9102,7.927,7.9216,7.9235,7.9303,7.9471,7.9481,7.9491,7.9567,7.9589,7.9607,0,0,0,0,0,0,7.8875,7.8918,7.89,7.9024,7.9065,7.9102,7.9165,7.9142,7.9195,7.9186,7.9173,7.9183,7.9288,7.9306,7.9245,7.9429,7.9362,7.9377,7.9414,7.9434,7.945,7.9443,7.9176,0,0,0,0,0,7.8905,7.8976,7.9009,7.9114,7.9136,7.9148,7.9186,7.9178,7.9219,7.9235,7.9256,7.9295,7.9356,7.9396,7.9454,7.9577,7.9584,7.9634,7.965,7.9663,7.9675,7.974,7.9762,7.953,7.953,7.9529,0,0,7.8966,7.8999,7.9044,7.9129,7.916,7.9231,7.9162,7.924,7.9292,7.9246,7.9343,7.936,7.9402,7.9515,7.9565,7.9532,7.9741,7.9676,7.9687,7.9692,7.9753,7.9775,7.9794,7.9536,7.9535,7.9534,0,0,7.9114,7.9147,7.9238,7.9272,7.9321,7.9327,7.9349,7.939,7.94,7.9499,7.9465,7.9524,7.9631,7.9662,7.9691,7.9851,7.9821,7.987,7.9955,8.0018,8.0036,8.0052,8.0107,8.0128,7.9882,7.9883,7.9883,0,7.9183,7.9292,7.9287,7.9368,7.9405,7.937,7.9461,7.9492,7.9556,7.9581,7.9544,7.9677,7.9702,7.9821,7.986,7.9886,7.9908,7.9865,8.0035,8.0051,8.0066,8.0118,8.0139,7.9888,7.9888,7.9887,7.9887,0,7.9373,7.9449,7.9516,7.9582,7.9627,7.9712,7.9718,7.9763,7.9751,7.9761,7.9859,7.989,7.9952,7.998,7.9968,8.0096,8.0074,8.0037,7.9969,8.0093,8.0142,8.0162,7.9896,7.9894,7.9893,7.9891,0,0,7.9566,7.9629,7.9654,7.9683,7.9734,7.9791,7.9873,7.9938,7.9976,8.0021,8.0088,8.0179,8.0144,8.0178,8.0169,8.0225,8.0347,8.0179,8.018,8.0208,8.0488,8.0515,8.0539,8.0328,8.0332,8.0335,8.0484,0,7.9715,7.9863,7.9861,7.9996,8.0065,8.0032,8.0103,8.0141,8.0152,8.0209,8.022,8.0284,8.0235,8.0254,8.0308,8.0321,8.0403,8.031,8.0387,8.039,8.0376,8.0564,8.0593,8.0732,8.0503,8.0506,8.0509,0,7.991,7.9965,8.0108,8.0149,8.0177,8.0242,8.03,8.0356,8.0397,8.0401,8.0439,8.0421,8.0501,8.0434,8.0542,8.048,8.0511,8.0521,8.0527,8.0532,8.0456,8.0573,8.0777,8.0797,8.0539,8.0537,8.0534,0,8.0034,8.0143,8.0243,8.0269,8.032,8.0365,8.0388,8.0425,8.0464,8.0513,8.0537,8.0595,8.0626,8.0669,8.0666,8.0617,8.0776,8.0708,8.0779,8.0779,8.0812,8.081,8.1022,8.0835,8.0835,8.0835,8.0834,0,8.02,8.0289,8.0299,8.036,8.0457,8.0453,8.0547,8.0565,8.0599,8.066,8.0634,8.0692,8.0685,8.0742,8.074,8.0829,8.0844,8.0847,8.0845,8.0848,8.0848,8.0867,8.0857,8.084,8.0839,8.0838,8.0837,0,8.0355,8.0366,8.0472,8.0512,8.0524,8.0593,8.0626,8.0682,8.0691,8.0769,8.0787,8.08,8.0866,8.0868,8.0943,8.0941,8.105,8.1038,8.1037,8.1034,8.1104,8.1097,8.1335,8.1365,8.116,8.1162,8.1164,0,8.046,8.0527,8.0575,8.0616,8.0643,8.0708,8.0748,8.0746,8.0787,8.0839,8.0888,8.0952,8.1003,8.1109,8.1123,8.118,8.1168,8.1247,8.1176,8.1177,8.1167,8.1162,8.1168,8.1261,8.1263,8.1265,8.1266,0,8.0644,8.0646,8.0706,8.0768,8.0817,8.0865,8.0909,8.0943,8.0945,8.0993,8.1062,8.1101,8.1179,8.1241,8.1296,8.1316,8.1291,8.1289,8.1308,8.1311,8.1308,8.1309,8.1073,8.1283,8.1281,8.128,8.1279,8.1279,8.0775,8.0834,8.0877,8.0944,8.0978,8.102,8.1075,8.1092,8.115,8.1215,8.1209,8.1284,8.1321,8.1393,8.1417,8.1474,8.1446,8.1474,8.1481,8.1487,8.1494,8.13,8.1484,8.1483,8.1483,8.1483,8.1482,0,8.0957,8.0984,8.1046,8.111,8.1162,8.1138,8.1185,8.1229,8.1297,8.1336,8.1387,8.1465,8.1525,8.1545,8.1603,8.1644,8.1634,8.166,8.1655,8.166,8.1517,8.1494,8.1667,8.1667,8.1667,8.1667,8.1667,8.1667,8.1057,8.1154,8.1162,8.1274,8.1298,8.1375,8.1404,8.1441,8.1472,8.1561,8.1612,8.1626,8.1656,8.1716,8.1769,8.1773,8.1795,8.1825,8.1824,8.1689,8.167,8.1652,8.1631,8.183,8.183,8.1962,8.1963,8.1964]}]]